Location: Unspecified
(0.0000°N, 0.0000°E)
Time: 16:36:54
(UTC+00:00)

BIROS - Visible Passes

Search period start: 31 May 2023 00:00
Search period end: 10 June 2023 00:00
Orbit: 472 x 485 km, 97.2° (Epoch: 30 May)

Date Brightness Start Highest point End Pass type
(mag) Time Alt. Az. Time Alt. Az. Time Alt. Az.
31 May 8.0 19:18:57 11° NE 19:18:57 11° NE 19:19:10 10° NE visible
01 Jun 8.9 20:26:37 10° NW 20:26:37 10° NW 20:26:39 10° NW visible
02 Jun 8.0 20:00:03 17° NNW 20:00:03 17° NNW 20:00:55 10° NNW visible
03 Jun 7.7 19:33:28 16° NNE 19:33:28 16° NNE 19:34:20 10° NNE visible
05 Jun 8.4 20:14:29 15° NNW 20:14:29 15° NNW 20:15:10 10° NNW visible
06 Jun 7.7 19:47:52 19° N 19:47:52 19° N 19:49:00 10° N visible
07 Jun 7.8 19:21:15 13° NE 19:21:15 13° NE 19:21:56 10° NNE visible
08 Jun 8.9 20:28:49 11° NW 20:28:49 11° NW 20:29:01 10° NW visible
09 Jun 7.9 20:02:10 20° NNW 20:02:10 20° NNW 20:03:19 10° NNW visible
